Weather observations for the past three days for
Duncan, Halliburton Field Airport
Metric (Imperial)
Date Time (cdt) Wind (kph) Vis. (km) Weather Sky Cond. Temperature (ºC) Relative Humidity Wind Chill (°C) Heat Index (°C) Pressure Precipitation (cm)
Air Dwpt 6 hour altimeter (cm) sea level (mb) 1 hr 3 hr 6 hr
Max. Min.
08 20:15 S 22 16.09 Partly Cloudy SCT090 SCT120 24 18 69% 25 75.57 0.0
08 19:55 S 28 G 33 16.09 Partly Cloudy SCT100 25 18 65% 26 75.57 0.0
08 19:35 SE 22 11.27 Fair CLR 25 19 69% 26 75.54 0.0
08 19:15 S 22 11.27 Thunderstorm in Vicinity CLR 25 19 69% 26 75.49 0.0
08 18:55 S 24 16.09 Fair CLR 25 18 65% 26 75.51 0.0
08 18:35 S 19 16.09 Fair CLR 26 17 58% 27 75.54 0.0
08 18:15 S 20 16.09 Fair CLR 26 17 58% 27 75.54 0.0
08 17:55 S 20 16.09 Partly Cloudy SCT046 27 16 51% 27 75.54 0.0
08 17:35 S 22 16.09 Partly Cloudy SCT049 27 17 54% 28 75.57 0.0
08 17:15 S 20 16.09 Mostly Cloudy BKN049 27 16 51% 27 75.59 0.0
08 16:55 S 15 16.09 Mostly Cloudy BKN047 28 16 48% 28 75.59 0.0
08 16:35 SE 20 G 28 16.09 Overcast OVC049 28 16 48% 28 75.59 0.0
08 16:15 S 20 G 31 16.09 Partly Cloudy SCT049 28 16 48% 28 75.62 0.0
08 15:55 S 20 16.09 Fair CLR 28 15 45% 28 75.64 0.0
08 15:35 S 17 G 30 16.09 Fair CLR 28 15 45% 28 75.67 0.0
08 15:15 SE 20 16.09 Fair CLR 28 15 45% 28 75.67 0.0
08 14:55 SE 19 16.09 Fair CLR 27 15 48% 27 75.69 0.0
08 14:35 SE 19 G 35 16.09 Fair CLR 27 15 48% 27 75.72 0.0
08 14:15 SW 11 16.09 Fair CLR 27 14 45% 27 75.72 0.0
08 13:55 S 19 16.09 Fair CLR 26 14 48% 26 75.74 0.0
08 13:35 S 20 16.09 Fair CLR 26 14 48% 26 75.74 0.0
08 13:15 S 19 16.09 Fair CLR 26 13 45% 26 75.79 0.0
08 12:55 S 20 G 30 16.09 Fair CLR 25 13 47% 26 75.82 0.0
08 12:35 S 17 16.09 Fair CLR 25 13 47% 26 75.84 0.0
08 12:15 S 20 G 28 16.09 Fair CLR 24 13 50% 25 75.9 0.0
08 11:55 S 19 16.09 Partly Cloudy SCT045 23 12 50% 75.95 0.0
08 11:35 S 20 G 26 16.09 Mostly Cloudy BKN042 BKN049 22 11 50% 75.97 0.0
08 11:15 S 19 16.09 Partly Cloudy SCT040 22 11 50% 76 0.0
08 10:55 S 20 16.09 Fair CLR 21 12 57% 76 0.0
08 10:35 S 17 16.09 Partly Cloudy SCT060 20 12 60% 76.05 0.0
08 10:15 S 24 16.09 Partly Cloudy SCT042 20 12 60% 76.05 0.0
08 09:55 S 24 16.09 Mostly Cloudy BKN040 18 12 68% 76.07 0.0
08 09:35 S 17 16.09 Overcast OVC040 17 12 73% 76.07 0.0
08 09:15 S 15 16.09 Mostly Cloudy BKN044 17 12 73% 76.1 0.0
08 08:55 S 13 16.09 Fair CLR 16 12 77% 76.12 0.0
08 08:35 SE 9 16.09 Fair CLR 15 12 82% 76.12 0.0
08 08:15 SE 7 16.09 Fair CLR 13 11 88% 76.1 0.0
08 07:55 SE 7 16.09 Fair CLR 12 11 94% 76.1 0.0
08 07:35 E 9 16.09 Fair CLR 11 0 0% 76.07 0.0
08 07:15 E 9 11.27 Fair CLR 10 0 0% 9 76.1 0.0
08 06:55 E 7 11.27 Fair CLR 10 0 0% 9 76.07 0.0
08 06:35 E 6 11.27 Fair CLR 9 0 0% 76.07 0.0
08 06:15 SE 6 16.09 Fair CLR 10 0 0% 76.05 0.0
08 05:55 E 6 16.09 Fair CLR 10 0 0% 76.05 0.0
08 05:35 Calm 16.09 Fair CLR 10 10 100% 76.07 0.0
08 05:15 Calm 8.05 Fog/Mist CLR 10 10 100% 76.05 0.0
08 04:55 SE 7 0.00 Fair CLR 11 10 94% 76.05 0.0
08 04:35 Calm 16.09 Fair CLR 11 10 94% 76.05 0.0
08 04:15 SE 6 16.09 Fair CLR 11 10 94% 76.05 0.0
08 03:55 SE 7 11.27 Fair CLR 11 10 94% 76.05 0.0
08 03:35 S 7 16.09 Fair CLR 11 10 94% 76.05 0.0
08 03:15 S 9 16.09 Fair CLR 11 10 94% 76.07 0.0
08 02:55 SE 6 16.09 Fair CLR 12 10 88% 76.07 0.0
08 02:35 S 7 16.09 Fair CLR 12 10 88% 76.1 0.0
08 02:15 S 9 16.09 Fair CLR 12 10 88% 76.1 0.0
08 01:55 S 11 8.05 Fog/Mist CLR 12 10 88% 76.12 0.0
08 01:35 SE 9 5.63 Fog/Mist CLR 12 10 88% 76.12 0.0
08 01:15 SE 9 6.44 Fair with Haze CLR 13 10 82% 76.15 0.0
08 00:55 SE 11 8.05 Fair with Haze CLR 13 10 82% 76.15 0.0
08 00:35 SE 9 11.27 Fair CLR 13 9 77% 76.15 0.0
08 00:15 SE 9 11.27 Fair CLR 13 9 77% 76.15 0.0
07 23:55 SE 9 11.27 Fair CLR 14 9 72% 76.17 0.0
07 23:35 S 9 16.09 Fair CLR 14 9 72% 76.17 0.0
07 23:15 S 9 16.09 Fair CLR 15 8 63% 76.17 0.0
07 22:55 SE 11 16.09 Fair CLR 16 8 59% 76.17 0.0
07 22:35 E 7 16.09 Fair CLR 15 8 63% 76.15 0.0
07 22:15 S 13 16.09 Fair CLR 16 8 59% 76.15 0.0
07 21:55 S 13 16.09 Fair CLR 17 8 56% 76.12 0.0
07 21:35 SE 11 16.09 Fair CLR 17 8 56% 76.12 0.0
07 21:15 S 11 16.09 Fair CLR 18 7 49% 76.12 0.0
07 20:55 S 11 8.05 Fair with Haze CLR 19 7 46% 76.1 0.0
07 20:15 SE 7 16.09 Fair CLR 21 7 40% 76.07 0.0
07 19:55 S 7 16.09 Fair CLR 22 6 36% 76.1 0.0
07 19:35 S 11 16.09 Fair CLR 23 6 33% 76.1 0.0
07 19:15 S 15 16.09 Fair CLR 23 6 33% 76.1 0.0
07 18:55 S 6 16.09 Fair CLR 23 5 31% 76.1 0.0
07 18:35 S 9 16.09 Fair CLR 24 5 29% 25 76.07 0.0
07 18:15 E 6 16.09 Fair CLR 24 5 29% 25 76.07 0.0
07 17:55 S 9 16.09 Fair CLR 24 5 29% 25 76.1 0.0
07 17:35 Calm 16.09 Fair CLR 24 5 29% 25 76.1 0.0
07 17:15 SW 7 16.09 Fair CLR 23 5 31% 76.12 0.0
07 16:55 Calm 16.09 Fair CLR 23 4 29% 76.12 0.0
07 16:35 W 13 16.09 Fair CLR 24 6 31% 25 76.15 0.0
07 16:15 W 11 16.09 Fair CLR 23 5 31% 76.17 0.0
07 15:55 NW 9 16.09 Fair CLR 23 5 31% 76.2 0.0
07 15:35 NW 7 16.09 Fair CLR 22 5 33% 76.2 0.0
07 15:15 NW 7 16.09 Fair CLR 22 6 36% 76.23 0.0
07 14:55 W 11 16.09 Fair CLR 22 7 38% 76.25 0.0
07 14:35 W 9 16.09 Fair CLR 22 6 36% 76.3 0.0
07 14:15 N 9 16.09 Fair CLR 21 6 38% 76.3 0.0
07 13:55 W 15 16.09 Fair CLR 21 6 38% 76.35 0.0
07 13:35 SW 15 16.09 Fair CLR 21 7 40% 76.38 0.0
07 13:15 SW 11 16.09 Fair CLR 20 7 43% 76.4 0.0
07 12:55 SW 11 16.09 Fair CLR 20 7 43% 76.43 0.0
07 12:35 NW 9 16.09 Fair CLR 19 6 43% 76.45 0.0
07 12:15 NW 7 16.09 Fair CLR 19 6 43% 76.48 0.0
07 11:55 W 9 16.09 Fair CLR 18 6 46% 76.5 0.0
07 11:35 SW 7 16.09 Fair CLR 18 6 46% 76.5 0.0
07 11:15 W 7 16.09 Fair CLR 17 6 49% 76.53 0.0
07 10:55 W 6 16.09 Fair CLR 17 6 49% 76.56 0.0
07 10:35 Calm 16.09 Fair CLR 16 5 48% 76.56 0.0
07 10:15 Calm 16.09 Fair CLR 16 6 52% 76.58 0.0
07 09:55 SW 7 16.09 Fair CLR 15 6 55% 76.58 0.0
07 09:35 Calm 16.09 Fair CLR 15 6 55% 76.58 0.0
07 09:15 W 6 16.09 Fair CLR 14 5 55% 76.61 0.0
07 08:55 NW 6 16.09 Fair CLR 13 5 59% 76.61 0.0
07 08:35 NW 9 16.09 Fair CLR 12 6 67% 76.61 0.0
07 08:15 NW 9 16.09 Fair CLR 11 6 72% 76.61 0.0
07 07:55 NW 9 16.09 Fair CLR 10 6 76% 9 76.61 0.0
07 07:35 NW 9 16.09 Fair CLR 8 6 87% 7 76.61 0.0
07 07:15 NW 9 16.09 Fair CLR 8 6 87% 7 76.58 0.0
07 06:55 NW 9 16.09 Partly Cloudy SCT095 8 6 87% 7 76.56 0.0
07 06:35 NW 9 16.09 Fair CLR 8 6 87% 7 76.53 0.0
07 06:15 NW 7 16.09 Fair CLR 7 6 93% 6 76.53 0.0
07 05:55 NW 6 16.09 Fair CLR 8 6 87% 76.5 0.0
07 05:35 NW 7 16.09 Fair CLR 8 6 87% 7 76.5 0.0
07 05:15 NW 7 16.09 Partly Cloudy SCT100 8 6 87% 7 76.5 0.0
07 04:55 NW 6 16.09 Mostly Cloudy BKN110 8 6 87% 76.5 0.0
07 04:35 Calm 16.09 Overcast OVC110 9 6 82% 76.5 0.0
07 04:15 W 6 16.09 Mostly Cloudy BKN110 8 6 87% 76.48 0.0
07 03:55 N 7 16.09 Partly Cloudy SCT110 9 6 82% 8 76.43 0.0
07 03:35 N 7 16.09 Fair CLR 9 6 82% 8 76.43 0.0
07 03:15 N 11 16.09 Fair CLR 10 6 76% 9 76.43 0.0
07 02:55 N 13 16.09 Fair CLR 10 6 76% 8 76.48 0.0
07 02:35 N 13 16.09 Fair CLR 10 6 76% 8 76.48 0.0
07 02:15 N 11 16.09 Fair CLR 10 6 76% 9 76.48 0.0
07 01:55 N 11 16.09 Fair CLR 10 6 76% 9 76.5 0.0
07 01:35 N 13 16.09 Fair CLR 10 6 76% 8 76.48 0.0
07 01:15 N 11 16.09 Fair CLR 10 6 76% 9 76.48 0.0
07 00:55 NE 11 16.09 Fair CLR 10 6 76% 9 76.48 0.0
07 00:35 N 11 16.09 Fair CLR 10 6 76% 9 76.48 0.0
07 00:15 N 9 16.09 Fair CLR 11 6 72% 76.48 0.0
06 23:55 N 9 16.09 Fair CLR 11 6 72% 76.43 0.0
06 23:35 NE 6 16.09 Fair CLR 12 6 67% 76.43 0.0
06 23:15 E 11 16.09 Fair CLR 12 6 67% 76.4 0.0
06 22:55 E 9 16.09 Fair CLR 12 7 72% 76.4 0.0
06 22:15 NE 9 16.09 Fair CLR 13 7 67% 76.38 0.0
06 21:55 NE 9 16.09 Fair CLR 13 7 67% 76.35 0.0
06 21:35 NE 13 16.09 Fair CLR 14 7 63% 76.33 0.0
06 21:15 NE 13 16.09 Fair CLR 14 7 63% 76.3 0.0
06 20:55 NE 11 16.09 Fair CLR 15 7 59% 76.28 0.0
06 20:35 NE 13 16.09 Fair CLR 15 7 59% 76.25 0.0
06 20:15 NE 13 16.09 Fair CLR 16 7 55% 76.25 0.0
06 19:55 NE 17 G 26 16.09 Fair CLR 17 7 52% 76.23 0.0
06 19:35 NE 20 16.09 Partly Cloudy SCT049 17 6 49% 76.23 0.0
06 19:15 NE 15 16.09 Partly Cloudy SCT049 18 6 46% 76.2 0.0
06 18:55 NE 15 16.09 Fair CLR 18 7 49% 76.17 0.0
06 18:35 NE 19 16.09 Fair CLR 19 6 43% 76.17 0.0
06 17:55 E 20 G 30 16.09 Partly Cloudy SCT049 19 7 46% 76.15 0.0
06 17:35 NE 22 G 28 16.09 Mostly Cloudy BKN049 19 7 46% 76.15 0.0
06 17:15 NE 17 16.09 Mostly Cloudy BKN047 19 7 46% 76.15 0.0
06 16:35 N 26 G 33 16.09 Partly Cloudy SCT045 18 7 49% 76.15 0.0
06 16:15 NE 20 G 28 16.09 Partly Cloudy SCT043 19 7 46% 76.17 0.0
06 15:55 NE 22 16.09 Partly Cloudy SCT041 19 8 49% 76.17 0.0
06 15:35 NE 15 16.09 Partly Cloudy SCT041 18 8 52% 76.17 0.0
06 15:15 NE 11 G 31 16.09 Fair CLR 18 7 49% 76.17 0.0
06 14:55 NE 17 G 31 16.09 Fair CLR 17 7 52% 76.17 0.0
06 14:35 NE 20 16.09 Fair CLR 17 7 52% 76.17 0.0
06 14:15 NE 26 G 35 16.09 Fair CLR 16 7 55% 76.2 0.0
06 13:55 N 28 G 33 16.09 Partly Cloudy SCT120 16 7 55% 76.17 0.0
06 13:35 N 26 16.09 Partly Cloudy SCT120 15 7 59% 76.15 0.0
06 13:15 NE 26 G 43 16.09 Fair CLR 14 7 63% 76.17 0.0
06 12:55 NE 28 16.09 Fair CLR 14 6 59% 76.2 0.0
06 12:35 NE 22 G 31 16.09 Fair CLR 14 6 59% 76.25 0.0
06 12:15 NE 19 G 30 16.09 Fair CLR 13 6 63% 76.3 0.0
06 11:55 NE 22 16.09 Partly Cloudy SCT110 12 5 63% 76.33 0.0
06 11:35 NE 24 G 35 16.09 Mostly Cloudy SCT027 BKN110 12 5 63% 76.33 0.0
06 11:15 NE 17 16.09 Mostly Cloudy BKN027 BKN120 12 5 63% 76.33 0.0
06 10:55 E 24 G 31 16.09 Mostly Cloudy BKN027 12 5 63% 76.3 0.0
06 10:35 NE 22 G 31 16.09 Mostly Cloudy BKN027 11 5 67% 76.33 0.0
06 10:15 NE 15 G 28 16.09 Partly Cloudy SCT027 11 5 67% 76.33 0.0
06 09:55 NE 24 G 33 16.09 Partly Cloudy SCT027 11 4 62% 76.28 0.0
06 09:35 NE 26 G 37 16.09 Fair CLR 11 4 62% 76.23 0.0
06 09:15 NE 26 16.09 Fair CLR 11 4 62% 76.23 0.0
06 08:55 NE 33 G 46 16.09 Fair and Breezy CLR 11 4 62% 76.2 0.0
06 08:35 NE 33 G 48 16.09 Fair and Breezy CLR 11 4 62% 76.17 0.0
06 08:15 NE 31 G 46 16.09 Fair CLR 11 4 62% 76.17 0.0
06 07:55 NE 22 16.09 Fair CLR 10 4 67% 7 76.15 0.0
06 07:35 NE 30 G 44 16.09 Fair CLR 10 3 62% 7 76.12 0.0
06 06:55 NE 24 G 39 16.09 Fair CLR 10 3 62% 7 76.1 0.0
06 06:35 NE 24 G 35 16.09 Partly Cloudy SCT024 10 4 67% 7 76.07 0.0
06 06:15 N 26 G 35 16.09 Mostly Cloudy BKN024 10 4 67% 7 76.07 0.0
06 05:55 N 24 G 31 16.09 Overcast OVC023 10 4 67% 7 76.1 0.0
06 05:35 N 28 G 37 16.09 Overcast OVC023 10 4 67% 7 76.1 0.0
06 05:15 N 24 G 33 16.09 Overcast OVC023 10 4 67% 7 76.05 0.0
06 04:55 NE 17 G 33 16.09 Overcast OVC023 10 3 62% 8 76.05 0.0
06 04:35 N 19 G 35 16.09 Overcast OVC023 10 4 67% 8 76.05 0.0
06 04:15 N 20 16.09 Overcast OVC023 10 4 67% 8 76.05 0.0
06 03:55 N 20 G 28 16.09 Overcast OVC021 10 5 71% 8 76.05 0.0
06 03:35 N 17 16.09 Overcast OVC019 10 5 71% 8 76.02 0.0
06 03:15 NE 22 G 30 16.09 Overcast OVC019 10 5 71% 7 76 0.0
06 02:55 N 19 16.09 Overcast OVC019 10 6 76% 8 75.95 0.0
06 02:35 NE 20 G 31 16.09 Overcast OVC017 10 6 76% 8 75.9 0.0
06 02:15 N 17 G 30 16.09 Overcast OVC015 10 6 76% 8 75.92 0.0
06 01:55 NE 20 16.09 Overcast OVC015 10 6 76% 8 75.9 0.0
06 01:35 NE 26 16.09 Overcast OVC015 10 7 82% 7 75.95 0.0
06 01:15 NE 22 G 33 16.09 Overcast OVC017 10 6 76% 7 75.95 0.0
06 00:55 NE 26 16.09 Overcast OVC017 10 6 76% 7 75.9 0.0
06 00:35 NE 26 G 33 16.09 Overcast OVC017 10 6 76% 7 75.9 0.0
06 00:15 NE 24 G 37 16.09 Overcast OVC017 11 6 72% 75.9 0.0
05 23:55 NE 24 G 30 16.09 Overcast OVC019 11 6 72% 75.92 0.0
05 23:35 NE 22 G 28 16.09 Mostly Cloudy BKN019 11 7 77% 75.9 0.0
05 23:15 NE 22 G 37 16.09 Overcast OVC019 11 6 72% 75.92 0.0
05 22:55 NE 22 16.09 Mostly Cloudy BKN021 11 6 72% 75.9 0.0
05 22:35 NE 17 G 33 16.09 Partly Cloudy SCT021 11 6 72% 75.9 0.0
05 22:15 N 30 G 39 16.09 Mostly Cloudy BKN021 11 6 72% 75.87 0.0
05 21:55 NE 20 16.09 Overcast OVC021 12 7 72% 75.84 0.0
05 21:35 N 28 G 35 16.09 Overcast OVC021 12 7 72% 75.84 0.0
05 21:15 N 26 G 33 16.09 Overcast OVC021 12 7 72% 75.82 0.0
05 20:55 N 22 G 30 16.09 Overcast OVC021 12 7 72% 75.79 0.0
05 20:35 N 24 16.09 Overcast OVC021 12 7 72% 75.74 0.0
Date Time (cdt) Wind (kph) Vis. (km) Weather Sky Cond. Air Dwpt Max. Min. Relative Humidity Wind Chill (°C) Heat Index (°C) altimeter (cm) sea level (mb) 1 hr 3 hr 6 hr
6 hour
Temperature (ºC) Pressure Precipitation (cm)